Location: �A�n Sefra
(34.9681°N, 0.4346°E)
Time: 07:48:17
(UTC+00:00)

Daily predictions for brighter satellites

Satellite Brightness Start Highest point End
(mag) Time Altitude Azimuth Time Altitude Azimuth Time Altitude Azimuth
SMAP 3.3 17:35:15 10° S 17:39:53 80° WSW 17:44:34 10° NNW
Cosmos 2228 3.9 17:36:09 10° SSW 17:40:26 56° W 17:44:43 10° N
YAOGAN 1 3.8 17:39:32 10° ESE 17:42:43 21° ENE 17:45:55 10° NNE
Cosmos 1328 4.0 17:42:00 10° N 17:45:51 48° E 17:49:38 10° SSE
Cosmos 1271 Rocket 3.5 17:42:09 10° NNW 17:46:07 61° W 17:50:03 10° S
SKYMED 2 3.7 17:43:26 10° NNE 17:47:42 53° E 17:51:55 10° S
Cosmos 1300 4.2 17:47:27 10° SE 17:49:56 17° E 17:52:25 10° NE
CORIOLIS 4.4 17:47:47 10° S 17:53:06 77° WSW 17:58:29 10° NNW
Shenzhou-11 Module 3.4 17:52:08 10° NW 17:54:24 22° NNE 17:56:17 12° ENE
H-2A R/B 3.5 17:51:33 10° S 17:55:22 59° W 17:59:15 10° NNW
Meteosat 1 Rocket2 4.1 17:56:14 10° SW 17:59:41 28° S 18:02:45 10° ESE
NOSS 3-2 (C) 3.7 17:56:43 10° S 18:01:56 42° ESE 18:07:39 10° NE
Cosmos 1777 Rocket 4.0 18:01:45 10° N 18:06:54 61° ENE 18:12:01 10° SSE
Cosmos 2082 Rocket 3.1 18:02:32 10° N 18:07:21 27° ENE 18:11:51 11° ESE
Cosmos 1242 Rocket 3.5 18:08:45 10° NNW 18:12:21 52° W 18:15:53 10° S
NOAA 12 4.4 18:07:08 10° S 18:12:22 71° WSW 18:17:40 10° NNW
ASTEX 1 3.7 18:08:28 10° N 18:13:26 74° W 18:18:24 10° SSW
USA 116 3.4 18:10:21 10° NNE 18:13:41 64° ESE 18:17:20 10° S
Cosmos 839 Rocket 4.3 18:13:44 10° NNW 18:20:09 89° WSW 18:27:50 10° SSE
Cosmos 1703 3.7 18:17:16 10° NNW 18:21:09 63° W 18:24:59 10° S
Unknown 3.1 18:18:12 10° NW 18:21:15 49° NE 18:22:27 30° E
Cosmos 482 Debris 4.1 18:17:05 10° NW 18:21:33 68° SW 18:23:41 16° SE
CZ-4 R/B 1.4 18:18:02 10° SSE 18:22:11 80° ENE 18:26:25 10° N
Cosmos 1461 3.3 18:18:31 10° NNW 18:22:27 41° ENE 18:24:54 21° ESE
COSMOS 2406 3.7 18:18:42 10° NNW 18:24:23 64° WSW 18:30:01 10° S
Lacrosse 5 2.9 18:21:27 10° NNW 18:25:50 28° NE 18:27:30 23° ENE
ATLAS 3B R/B 2.9 18:22:57 10° S 18:29:24 47° ESE 18:35:04 13° NE
COSMO-SKYMED 1 4.0 18:31:39 10° N 18:35:42 39° WNW 18:39:44 10° SW
Envisat 3.9 18:31:09 10° S 18:36:05 52° W 18:41:03 10° NNW
CENTAUR R/B 2.4 18:31:41 10° SSW 18:37:11 56° ESE 18:42:36 14° NE
Cosmos 2278 Rocket 3.9 18:37:12 10° SW 18:42:15 33° WNW 18:47:20 10° N
Gbstr 26 Del rocket 4.4 18:37:54 10° NW 18:44:07 53° NE 18:47:35 30° E
Cosmos 2297 3.6 18:40:16 10° SSW 18:45:55 78° ESE 18:51:39 10° NNE
Cosmos 1459 Rocket 4.2 18:41:52 10° N 18:47:51 46° E 18:53:52 10° SSE
EO 1 Delta rocket 4.1 18:45:17 10° S 18:49:51 67° W 18:54:39 10° NNW
CSL-04 Rocket 4.0 18:47:02 10° S 18:52:32 69° WSW 18:58:02 10° NNW
Cosmos 1076 Rocket 3.5 18:59:18 10° N 19:03:40 82° W 19:07:26 13° S
Delta 2 Rocket 3.6 19:02:58 10° W 19:05:42 51° WNW 19:05:42 51° WNW
Cosmos 44 4.0 19:01:35 10° SW 19:06:28 51° WNW 19:09:46 19° NNE
NOAA 11 4.2 19:04:46 10° S 19:10:13 80° WSW 19:15:40 10° NNW
OAO 3 Rocket 3.8 19:06:29 10° W 19:11:12 47° SSW 19:11:58 43° S
Cosmos 2058 3.6 19:09:58 10° N 19:13:00 46° N 19:13:00 46° N
OAO 3 Copernicus 4.1 19:09:10 10° W 19:14:16 88° N 19:14:30 82° E
Cosmos 2173 Rocket 3.8 19:09:58 10° N 19:16:12 80° E 19:21:44 13° S
Ariane Rocket 3.0 19:15:58 29° S 19:18:40 81° WSW 19:23:47 10° NNW
Cosmos 1833 Rocket 3.7 19:15:08 10° NW 19:20:27 45° WSW 19:25:45 10° S
MOS 1 4.2 19:20:54 64° NE 19:20:54 64° NE 19:26:07 10° N
Cosmos 2123 Rocket 4.5 19:15:43 10° S 19:24:51 32° NNE 19:28:06 10° NNE
Cosmos 468 Rocket 4.4 19:19:26 10° SSW 19:24:39 62° WNW 19:28:18 20° N
Cosmos 1802 Rocket 3.9 19:18:29 10° N 19:24:56 77° E 19:26:33 52° SSE
Cosmos 1939 Rocket 3.9 19:25:20 38° SW 19:26:05 43° W 19:29:56 10° NNW
IRS-1A Rocket 4.3 19:29:29 44° S 19:31:16 74° WSW 19:36:47 10° NNW
Cosmos 2369 Rocket 4.5 19:30:32 10° S 19:30:41 11° S 19:30:41 11° S
Cosmos 1570 Rocket 4.3 19:33:54 10° SSW 19:39:00 66° W 19:39:00 66° W
Cosmos 2082 Rocket 3.5 19:46:17 10° NW 19:51:26 36° WSW 19:53:49 25° SSW
ADEOS Rocket 3.4 19:47:25 10° NNE 19:57:23 46° SSW 20:01:50 10° SSW
BREEZE M DEB (TANK) 3.7 19:51:17 10° WNW 19:54:22 62° W 19:54:22 62° W
Cosmos 1943 Rocket 4.4 19:53:48 10° SSW 19:54:33 14° SSW 19:54:33 14° SSW
Cosmos 2016 Rocket 4.4 19:54:44 10° NNW 20:00:07 59° NW 20:00:07 59° NW
Lacrosse 5 3.7 20:04:08 10° NW 20:06:45 27° WNW 20:06:45 27° WNW
ATLAS 3B R/B 4.1 20:14:22 10° WSW 20:20:13 31° NW 20:22:24 25° NNW
CENTAUR R/B 4.3 20:23:27 10° W 20:28:17 25° NW 20:29:51 22° NNW
